Location: Atlantic Beach
(40.5890°N, 73.7290°W)
Time: 00:14:30
(UTC+00:00)

Envisat - Pass Details

Date: 30 January 2021
Orbit: 764 x 766 km, 98.1° (Epoch: 03 March)

Event Time Altitude Azimuth Distance (km) Brightness Sun altitude
Rises 11:29:19 0° 3° (N) 3,240 6.1 -7.4°
Reaches altitude 10° 11:31:49 10° 354° (N) 2,310 5.3 -7.0°
Maximum altitude 11:36:19 33° 291° (WNW) 1,270 3.6 -6.2°
Drops below altitude 10° 11:40:48 10° 229° (SW) 2,295 5.2 -5.4°
Sets 11:43:17 0° 220° (SW) 3,217 6.0 -4.9°
